Regional Weather Roundup
Issued by NWS Kansas City/Pleasant Hill, MO

Home | Current Version | Previous Version | Graphics & Text | Print | Product List | Glossary Off
Versions: 1 2 3 4 5 6 7 8 9 10 11 12 13 14 15 16 17 18 19 20 21 22 23 24 25 26 27 28 29 30 31 32 33 34 35 36 37 38 39 40 41 42 43 44 45 46 47 48 49 50

000
ASUS43 KEAX 211204
RWREAX

WEATHER ROUNDUP FOR EASTERN KANSAS AND NORTHWEST MISSOURI
NATIONAL WEATHER SERVICE KANSAS CITY/PLEASANT HILL MO
700 AM CDT TUE OCT 21 2014

KSZ040-057-103>105-MOZ028-029-037-043-211300-
...KANSAS CITY METROPOLITAN AREA...

CITY           SKY/WX    TMP DP  RH WIND       PRES   REMARKS
K.C. INTL      CLEAR     46  43  89 NE3       30.11S
6HR MIN TEMP:  42; 6HR MAX TEMP:  56;

K.C. DOWNTOWN  CLEAR     46  44  93 CALM      30.12R
6HR MIN TEMP:  45; 6HR MAX TEMP:  51;

LEES SUMMIT    CLEAR     50  43  77 CALM      30.11S
6HR MIN TEMP:  45; 6HR MAX TEMP:  57;

OLATHE - IXD   CLEAR     44  41  89 CALM      30.12R
6HR MIN TEMP:  43; 6HR MAX TEMP:  50;

OLATHE - OJC   CLEAR     48  43  82 CALM      30.10S
6HR MIN TEMP:  47; 6HR MAX TEMP:  53;

LAWRENCE       CLEAR     38  36  92 CALM      30.12R FOG

$$

MOZ001>008-011>017-020>025-030>033-038>040-044>046-053-054-211300-
...NORTHERN AND CENTRAL MISSOURI...

CITY           SKY/WX    TMP DP  RH WIND       PRES   REMARKS
ST. JOSEPH     FOG       36  33  89 CALM      30.12S VSB 3/4
6HR MIN TEMP:  33; 6HR MAX TEMP:  42;

MOSBY            N/A     37  37 100 CALM      30.12R
WHITEMAN AFB   CLEAR     44  41  91 CALM      30.11R
6HR MIN TEMP:  42; 6HR MAX TEMP:  48;

CLINTON        FOG       43  43 100 CALM      30.12R VSB 1/4
SEDALIA        CLEAR     48  42  80 W3        30.12R HAZE
6HR MIN TEMP:  46; 6HR MAX TEMP:  54;

WARSAW         NOT AVBL
MARSHALL       CLEAR     45  43  93 CALM      30.12R
CHILLICOTHE      N/A     41  38  89 CALM      30.13R
6HR MIN TEMP:  41; 6HR MAX TEMP:  45;

MOBERLY        CLEAR     45  41  87 CALM      30.11R
KIRKSVILLE     CLEAR     40  39  97 N3        30.12R
6HR MIN TEMP:  39; 6HR MAX TEMP:  45;


$$

MOZ041-047>049-056>058-063>065-088>090-097-211300-
...EASTERN AND SOUTHERN MISSOURI...

CITY           SKY/WX    TMP DP  RH WIND       PRES   REMARKS
ST. LOUIS INTL CLEAR     49  43  80 CALM      30.08R
6HR MIN TEMP:  48; 6HR MAX TEMP:  53;

SPIRIT OF STL  CLEAR     42  41  96 CALM      30.08R
COLUMBIA       CLEAR     46  42  86 NW6       30.11R
JEFFERSON CITY CLEAR     42  40  92 CALM      30.11R
MEXICO         CLEAR    N/A N/A N/A NW3       30.10R
ROLLA          CLEAR     46  42  86 SW3       30.08R
LEBANON        CLEAR     48  43  81 CALM      30.11S
OSAGE BEACH    CLEAR     41  37  87 CALM      30.11R
SPRINGFIELD    CLEAR     47  45  93 S3        30.11R
BRANSON        FOG      N/A N/A N/A CALM      30.12R VSB 1/8
NEVADA         FOG       45  45 100 CALM      30.12R VSB 3/4
JOPLIN         FOG       50  50 100 E5        30.11R VSB 1
WEST PLAINS    CLEAR     42  40  92 CALM      30.11R

$$

IAZ060-094-KSZ022-034>040-054-083-096-NEZ052-066-093-211300-
...KANSAS...SOUTHEAST NEBRASKA AND IOWA...

CITY           SKY/WX    TMP DP  RH WIND       PRES   REMARKS
TOPEKA         CLEAR     42  40  92 CALM      30.12R
6HR MIN TEMP:  40; 6HR MAX TEMP:  46;

MANHATTAN      CLEAR     37  37 100 CALM      30.10S
EMPORIA        CLEAR     45  44  97 CALM      30.10S
CHANUTE        CLEAR     45  45 100 CALM      30.10R
WICHITA        MOCLDY    55  50  83 E6        30.08S
OMAHA          CLEAR     40  38  93 CALM      30.12R
LINCOLN        CLEAR     37  33  85 N3        30.12R
FALLS CITY     CLEAR     38  36  92 CALM      30.11R
LAMONI         CLEAR     44  39  82 CALM      30.11S
DES MOINES     CLEAR     43  39  86 CALM      30.12S

$$



USA.gov is the U.S. government's official web portal to all federal, state and local government web resources and services.